^^
Paulen-Weather Station Historical Data
Daily Summary for January 07, 2020 Units:  Metric    English   Both
Daily Weekly Monthly Yearly Custom
  High: Low: Average:
Temperature: 8 °C 6 °C 7.1 °C
Dew Point: 8 °C 5 °C 6.4 °C
Humidity: 97% 91% 95%
Wind Speed: 43km/h 2km/h 17.2km/h
Wind Gust: 50km/h - -
Wind- - South
Pressure: 1014.02 hPa 1007.62 hPa -
Precipitation: 0.79 mm    
Historical Graphs
 
 
Tabular Data for January 07, 2020
Time Temperature Dew Point Pressure Wind Wind Speed Wind Gust Humidity Rainfall Rate (Hourly) solar
00:04 7 °C 6 °C 1009.21 hPa NNE 28 km/h 26 km/h 94% 0.2 mm 0 W/m2
00:09 7 °C 6 °C 1009.18 hPa NNE 28 km/h 34 km/h 94% 0.2 mm 0 W/m2
00:14 7 °C 6 °C 1009.18 hPa NNE 33 km/h 35 km/h 94% 0.2 mm 0 W/m2
00:19 7 °C 6 °C 1009.18 hPa NW 29 km/h 40 km/h 94% 0.2 mm 0 W/m2
00:24 7 °C 6 °C 1009.14 hPa NW 27 km/h 32 km/h 94% 0.2 mm 0 W/m2
00:29 7 °C 6 °C 1009.14 hPa NNE 27 km/h 32 km/h 95% 0.2 mm 0 W/m2
00:34 7 °C 6 °C 1009.14 hPa NNE 23 km/h 32 km/h 95% 0.2 mm 0 W/m2
00:39 7 °C 6 °C 1009.08 hPa NNE 23 km/h 26 km/h 95% 0.2 mm 0 W/m2
00:44 7 °C 6 °C 1009.01 hPa NNE 24 km/h 24 km/h 95% 0.41 mm 0 W/m2
00:49 7 °C 6 °C 1008.91 hPa NNE 28 km/h 34 km/h 95% 0.41 mm 0 W/m2
00:54 7 °C 6 °C 1008.81 hPa NNE 21 km/h 32 km/h 95% 0.41 mm 0 W/m2
00:59 7 °C 6 °C 1008.84 hPa NNW 21 km/h 26 km/h 95% 0.2 mm 0 W/m2
01:04 7 °C 6 °C 1008.81 hPa NNE 23 km/h 29 km/h 95% 0.2 mm 0 W/m2
01:09 7 °C 6 °C 1008.84 hPa W 24 km/h 29 km/h 95% 0.2 mm 0 W/m2
01:14 7 °C 6 °C 1008.97 hPa NNE 27 km/h 29 km/h 95% 0.2 mm 0 W/m2
01:19 7 °C 6 °C 1009.04 hPa NNE 21 km/h 29 km/h 95% 0.2 mm 0 W/m2
01:24 7 °C 7 °C 1009.08 hPa NNE 26 km/h 24 km/h 96% 0.2 mm 0 W/m2
01:29 7 °C 6 °C 1009.04 hPa NNE 29 km/h 32 km/h 95% 0.2 mm 0 W/m2
01:34 7 °C 6 °C 1009.01 hPa NNE 25 km/h 32 km/h 95% 0.2 mm 0 W/m2
01:39 7 °C 6 °C 1008.94 hPa NNE 23 km/h 29 km/h 95% 0.2 mm 0 W/m2
01:44 7 °C 6 °C 1008.87 hPa NW 24 km/h 29 km/h 95% 0.2 mm 0 W/m2
01:49 7 °C 6 °C 1008.84 hPa NNE 24 km/h 32 km/h 95% 0 mm 0 W/m2
01:54 7 °C 6 °C 1008.87 hPa NNE 19 km/h 27 km/h 95% 0 mm 0 W/m2
01:59 7 °C 6 °C 1008.94 hPa NNE 24 km/h 23 km/h 95% 0 mm 0 W/m2
02:04 7 °C 7 °C 1008.94 hPa NNE 25 km/h 32 km/h 96% 0 mm 0 W/m2
02:09 7 °C 7 °C 1008.97 hPa NNE 23 km/h 27 km/h 96% 0 mm 0 W/m2
02:14 7 °C 7 °C 1008.94 hPa NNE 25 km/h 29 km/h 96% 0 mm 0 W/m2
02:19 7 °C 7 °C 1009.01 hPa NNE 19 km/h 29 km/h 96% 0 mm 0 W/m2
02:24 7 °C 7 °C 1008.97 hPa WSW 20 km/h 24 km/h 96% 0 mm 0 W/m2
02:29 7 °C 7 °C 1008.97 hPa N 22 km/h 24 km/h 96% 0 mm 0 W/m2
02:34 7 °C 7 °C 1009.01 hPa NNE 25 km/h 24 km/h 96% 0 mm 0 W/m2
02:39 7 °C 7 °C 1009.04 hPa N 27 km/h 27 km/h 96% 0 mm 0 W/m2
02:44 7 °C 7 °C 1009.01 hPa NNE 21 km/h 32 km/h 96% 0 mm 0 W/m2
02:49 7 °C 7 °C 1009.11 hPa NNE 18 km/h 23 km/h 96% 0 mm 0 W/m2
02:54 7 °C 7 °C 1009.08 hPa NNE 25 km/h 24 km/h 96% 0 mm 0 W/m2
02:59 7 °C 7 °C 1009.14 hPa NNW 20 km/h 32 km/h 96% 0 mm 0 W/m2
03:04 7 °C 7 °C 1009.08 hPa NNE 23 km/h 24 km/h 96% 0 mm 0 W/m2
03:09 7 °C 7 °C 1009.14 hPa NNW 24 km/h 27 km/h 97% 0 mm 0 W/m2
03:14 7 °C 7 °C 1009.11 hPa NW 23 km/h 27 km/h 97% 0 mm 0 W/m2
03:19 7 °C 7 °C 1009.11 hPa WNW 23 km/h 32 km/h 97% 0 mm 0 W/m2
03:24 7 °C 7 °C 1008.97 hPa N 19 km/h 24 km/h 97% 0 mm 0 W/m2
03:29 7 °C 7 °C 1009.04 hPa N 18 km/h 26 km/h 97% 0 mm 0 W/m2
03:34 8 °C 7 °C 1009.21 hPa NNE 18 km/h 26 km/h 97% 0 mm 0 W/m2
03:39 8 °C 7 °C 1009.35 hPa NNE 21 km/h 21 km/h 97% 0 mm 0 W/m2
03:44 8 °C 7 °C 1009.35 hPa NNW 17 km/h 24 km/h 97% 0 mm 0 W/m2
03:49 8 °C 7 °C 1009.35 hPa NNE 21 km/h 21 km/h 97% 0 mm 0 W/m2
03:54 8 °C 7 °C 1009.41 hPa WNW 17 km/h 27 km/h 97% 0 mm 0 W/m2
03:59 8 °C 7 °C 1009.41 hPa N 19 km/h 23 km/h 97% 0 mm 0 W/m2
04:04 8 °C 7 °C 1009.38 hPa N 19 km/h 23 km/h 97% 0 mm 0 W/m2
04:09 8 °C 7 °C 1009.41 hPa NNW 19 km/h 23 km/h 97% 0 mm 0 W/m2
04:14 8 °C 7 °C 1009.58 hPa NNE 19 km/h 21 km/h 97% 0 mm 0 W/m2
04:19 8 °C 7 °C 1009.58 hPa N 16 km/h 24 km/h 97% 0 mm 0 W/m2
04:24 8 °C 7 °C 1009.69 hPa N 15 km/h 19 km/h 97% 0 mm 0 W/m2
04:29 8 °C 7 °C 1009.82 hPa NNW 17 km/h 19 km/h 97% 0 mm 0 W/m2
04:34 8 °C 7 °C 1009.85 hPa N 15 km/h 19 km/h 97% 0 mm 0 W/m2
04:39 8 °C 7 °C 1009.82 hPa WNW 17 km/h 19 km/h 97% 0 mm 0 W/m2
04:44 8 °C 7 °C 1009.92 hPa WNW 16 km/h 19 km/h 97% 0 mm 0 W/m2
04:49 8 °C 7 °C 1010.02 hPa WNW 15 km/h 19 km/h 97% 0 mm 0 W/m2
04:54 8 °C 7 °C 1010.09 hPa WNW 16 km/h 19 km/h 97% 0 mm 0 W/m2
04:59 8 °C 7 °C 1010.09 hPa WNW 14 km/h 19 km/h 97% 0 mm 0 W/m2
05:04 8 °C 7 °C 1010.06 hPa WNW 11 km/h 16 km/h 97% 0 mm 0 W/m2
05:09 8 °C 7 °C 1010.02 hPa WNW 15 km/h 19 km/h 97% 0 mm 0 W/m2
05:14 8 °C 7 °C 1010.06 hPa WNW 9 km/h 19 km/h 97% 0 mm 0 W/m2
05:19 8 °C 8 °C 1010.09 hPa NW 13 km/h 12 km/h 97% 0 mm 0 W/m2
05:24 8 °C 8 °C 1010.06 hPa WNW 10 km/h 19 km/h 97% 0 mm 0 W/m2
05:29 8 °C 8 °C 1010.23 hPa WNW 7 km/h 14 km/h 97% 0 mm 0 W/m2
05:34 8 °C 8 °C 1010.36 hPa NW 10 km/h 10 km/h 97% 0 mm 0 W/m2
05:39 8 °C 8 °C 1010.5 hPa NW 13 km/h 13 km/h 97% 0 mm 0 W/m2
05:44 8 °C 8 °C 1010.6 hPa WNW 7 km/h 14 km/h 97% 0 mm 0 W/m2
05:49 8 °C 8 °C 1010.77 hPa WNW 8 km/h 13 km/h 97% 0 mm 0 W/m2
05:54 8 °C 8 °C 1010.77 hPa WNW 8 km/h 10 km/h 97% 0 mm 0 W/m2
05:59 8 °C 8 °C 1010.7 hPa WNW 6 km/h 10 km/h 97% 0 mm 0 W/m2
06:04 8 °C 7 °C 1010.33 hPa WSW 7 km/h 13 km/h 97% 0 mm 0 W/m2
06:09 8 °C 7 °C 1010.3 hPa WSW 6 km/h 8 km/h 97% 0 mm 0 W/m2
06:14 8 °C 7 °C 1010.53 hPa WNW 6 km/h 8 km/h 97% 0 mm 0 W/m2
06:19 8 °C 7 °C 1010.63 hPa WNW 7 km/h 10 km/h 97% 0 mm 0 W/m2
06:24 8 °C 7 °C 1010.6 hPa W 5 km/h 8 km/h 97% 0 mm 0 W/m2
06:29 8 °C 7 °C 1010.63 hPa WNW 5 km/h 6 km/h 97% 0 mm 0 W/m2
06:34 8 °C 7 °C 1010.67 hPa WNW 6 km/h 6 km/h 97% 0 mm 0 W/m2
06:39 8 °C 7 °C 1010.67 hPa W 5 km/h 8 km/h 97% 0 mm 0 W/m2
06:44 7 °C 7 °C 1010.74 hPa W 6 km/h 6 km/h 97% 0 mm 0 W/m2
06:49 7 °C 7 °C 1010.94 hPa W 6 km/h 8 km/h 97% 0 mm 0 W/m2
06:54 7 °C 7 °C 1011.11 hPa WNW 9 km/h 8 km/h 97% 0 mm 0 W/m2
06:59 7 °C 7 °C 1011.24 hPa NW 10 km/h 11 km/h 97% 0 mm 0 W/m2
07:04 7 °C 7 °C 1011.34 hPa WNW 11 km/h 16 km/h 97% 0 mm 0 W/m2
07:09 7 °C 7 °C 1011.51 hPa WNW 10 km/h 14 km/h 97% 0 mm 0 W/m2
07:14 7 °C 7 °C 1011.72 hPa WNW 9 km/h 19 km/h 97% 0 mm 0 W/m2
07:19 7 °C 7 °C 1011.79 hPa WNW 10 km/h 14 km/h 97% 0 mm 0 W/m2
07:24 7 °C 6 °C 1011.85 hPa WNW 5 km/h 14 km/h 97% 0 mm 0 W/m2
07:29 7 °C 6 °C 1011.92 hPa NW 9 km/h 14 km/h 97% 0 mm 0 W/m2
07:34 7 °C 6 °C 1011.95 hPa WNW 4 km/h 11 km/h 97% 0 mm 0 W/m2
07:39 7 °C 6 °C 1012.12 hPa WNW 5 km/h 5 km/h 97% 0 mm 0 W/m2
07:44 7 °C 6 °C 1012.12 hPa WNW 3 km/h 8 km/h 96% 0 mm 0 W/m2
07:49 7 °C 6 °C 1012.02 hPa WNW 6 km/h 6 km/h 96% 0 mm 0 W/m2
07:54 6 °C 6 °C 1012.09 hPa WNW 7 km/h 10 km/h 96% 0 mm 0 W/m2
07:59 6 °C 6 °C 1012.23 hPa WNW 10 km/h 10 km/h 96% 0 mm 0 W/m2
08:04 6 °C 6 °C 1012.39 hPa W 6 km/h 13 km/h 96% 0 mm 0 W/m2
08:09 6 °C 6 °C 1012.46 hPa WNW 8 km/h 7 km/h 96% 0 mm 0 W/m2
08:14 6 °C 6 °C 1012.39 hPa W 7 km/h 10 km/h 96% 0 mm 0 W/m2
08:19 6 °C 6 °C 1012.26 hPa WNW 8 km/h 11 km/h 96% 0 mm 0 W/m2
08:24 6 °C 6 °C 1012.5 hPa W 5 km/h 10 km/h 96% 0 mm 0 W/m2
08:29 6 °C 6 °C 1012.67 hPa WNW 8 km/h 8 km/h 96% 0 mm 0 W/m2
08:34 6 °C 6 °C 1012.73 hPa WNW 8 km/h 10 km/h 96% 0 mm 0 W/m2
08:39 6 °C 6 °C 1012.73 hPa WNW 6 km/h 13 km/h 96% 0 mm 0 W/m2
08:44 6 °C 6 °C 1012.9 hPa WNW 6 km/h 8 km/h 96% 0 mm 0 W/m2
08:49 6 °C 6 °C 1012.9 hPa W 6 km/h 6 km/h 96% 0 mm 0 W/m2
08:54 6 °C 6 °C 1012.97 hPa WNW 5 km/h 8 km/h 96% 0 mm 5 W/m2
08:59 6 °C 6 °C 1013 hPa W 6 km/h 5 km/h 96% 0 mm 7 W/m2
09:04 6 °C 6 °C 1013.07 hPa WNW 6 km/h 8 km/h 96% 0 mm 7 W/m2
09:09 6 °C 6 °C 1013.11 hPa WNW 5 km/h 6 km/h 96% 0 mm 7 W/m2
09:14 6 °C 6 °C 1013.11 hPa W 5 km/h 6 km/h 96% 0 mm 9 W/m2
09:19 6 °C 6 °C 1013.31 hPa WNW 7 km/h 6 km/h 96% 0 mm 11 W/m2
09:24 6 °C 5 °C 1013.51 hPa W 6 km/h 10 km/h 96% 0 mm 16 W/m2
09:29 6 °C 5 °C 1013.72 hPa W 5 km/h 6 km/h 96% 0 mm 19 W/m2
09:34 6 °C 5 °C 1013.82 hPa W 4 km/h 5 km/h 96% 0 mm 21 W/m2
09:39 6 °C 5 °C 1013.85 hPa W 3 km/h 5 km/h 96% 0 mm 26 W/m2
09:44 6 °C 5 °C 1013.85 hPa W 4 km/h 5 km/h 96% 0 mm 35 W/m2
09:49 6 °C 5 °C 1013.85 hPa W 5 km/h 6 km/h 96% 0 mm 42 W/m2
09:54 6 °C 5 °C 1013.78 hPa W 6 km/h 5 km/h 96% 0 mm 46 W/m2
09:59 6 °C 5 °C 1013.65 hPa WNW 6 km/h 6 km/h 96% 0 mm 56 W/m2
10:04 6 °C 6 °C 1013.75 hPa WNW 5 km/h 5 km/h 96% 0 mm 63 W/m2
10:09 6 °C 6 °C 1013.75 hPa NW 3 km/h 8 km/h 96% 0 mm 65 W/m2
10:14 6 °C 6 °C 1013.85 hPa NW 4 km/h 5 km/h 96% 0 mm 79 W/m2
10:19 6 °C 6 °C 1013.78 hPa WNW 5 km/h 5 km/h 96% 0 mm 84 W/m2
10:24 6 °C 6 °C 1013.75 hPa WNW 5 km/h 6 km/h 96% 0 mm 86 W/m2
10:29 6 °C 6 °C 1013.88 hPa WNW 3 km/h 11 km/h 96% 0 mm 67 W/m2
10:34 6 °C 6 °C 1013.92 hPa N 7 km/h 7 km/h 96% 0 mm 104 W/m2
10:39 7 °C 6 °C 1013.78 hPa W 6 km/h 11 km/h 96% 0 mm 105 W/m2
10:44 7 °C 6 °C 1013.68 hPa W 4 km/h 8 km/h 96% 0 mm 116 W/m2
10:49 7 °C 6 °C 1013.92 hPa W 5 km/h 6 km/h 96% 0 mm 125 W/m2
10:54 7 °C 6 °C 1014.02 hPa W 5 km/h 6 km/h 96% 0 mm 121 W/m2
10:59 7 °C 6 °C 1013.99 hPa WNW 3 km/h 5 km/h 96% 0 mm 83 W/m2
11:04 7 °C 6 °C 1013.92 hPa WNW 2 km/h 3 km/h 96% 0 mm 102 W/m2
11:09 7 °C 6 °C 1013.92 hPa W 5 km/h 6 km/h 96% 0 mm 69 W/m2
11:14 7 °C 6 °C 1013.85 hPa WSW 5 km/h 8 km/h 96% 0 mm 90 W/m2
11:19 7 °C 6 °C 1013.82 hPa WNW 5 km/h 5 km/h 96% 0 mm 93 W/m2
11:24 7 °C 6 °C 1013.85 hPa WNW 8 km/h 11 km/h 96% 0 mm 58 W/m2
11:29 7 °C 6 °C 1013.82 hPa WNW 8 km/h 11 km/h 95% 0 mm 47 W/m2
11:34 7 °C 6 °C 1013.85 hPa WNW 9 km/h 11 km/h 95% 0 mm 42 W/m2
11:39 7 °C 6 °C 1013.78 hPa NW 4 km/h 10 km/h 95% 0 mm 63 W/m2
11:44 7 °C 6 °C 1013.82 hPa WNW 6 km/h 5 km/h 95% 0 mm 86 W/m2
11:49 7 °C 6 °C 1013.72 hPa WNW 7 km/h 8 km/h 95% 0 mm 86 W/m2
11:54 7 °C 6 °C 1013.61 hPa WNW 6 km/h 10 km/h 96% 0 mm 132 W/m2
11:59 7 °C 6 °C 1013.55 hPa NW 5 km/h 10 km/h 96% 0 mm 111 W/m2
12:04 7 °C 6 °C 1013.61 hPa NW 5 km/h 6 km/h 96% 0 mm 84 W/m2
12:09 7 °C 6 °C 1013.58 hPa W 5 km/h 6 km/h 96% 0 mm 81 W/m2
12:14 7 °C 6 °C 1013.55 hPa W 3 km/h 5 km/h 96% 0 mm 93 W/m2
12:19 7 °C 6 °C 1013.34 hPa W 5 km/h 6 km/h 96% 0 mm 156 W/m2
12:24 7 °C 7 °C 1013.21 hPa W 6 km/h 8 km/h 96% 0 mm 260 W/m2
12:29 8 °C 7 °C 1013 hPa NW 10 km/h 10 km/h 96% 0 mm 251 W/m2
12:34 8 °C 7 °C 1012.84 hPa WNW 16 km/h 14 km/h 95% 0 mm 193 W/m2
12:39 8 °C 7 °C 1012.84 hPa NNW 16 km/h 21 km/h 94% 0 mm 107 W/m2
12:44 8 °C 7 °C 1012.87 hPa W 17 km/h 19 km/h 94% 0 mm 62 W/m2
12:49 8 °C 7 °C 1012.9 hPa N 18 km/h 19 km/h 94% 0 mm 81 W/m2
12:54 8 °C 7 °C 1012.87 hPa N 16 km/h 19 km/h 94% 0 mm 67 W/m2
12:59 8 °C 7 °C 1012.87 hPa NNE 17 km/h 18 km/h 95% 0 mm 148 W/m2
13:04 8 °C 7 °C 1012.94 hPa WNW 15 km/h 23 km/h 95% 0 mm 88 W/m2
13:09 8 °C 7 °C 1012.77 hPa WNW 15 km/h 16 km/h 95% 0 mm 58 W/m2
13:14 8 °C 7 °C 1012.94 hPa N 16 km/h 19 km/h 95% 0 mm 56 W/m2
13:19 8 °C 7 °C 1013.04 hPa NNE 22 km/h 19 km/h 95% 0 mm 56 W/m2
13:24 8 °C 7 °C 1013.14 hPa N 23 km/h 26 km/h 95% 0 mm 56 W/m2
13:29 7 °C 7 °C 1013.17 hPa NNE 24 km/h 27 km/h 96% 0 mm 60 W/m2
13:34 7 °C 7 °C 1013.17 hPa NNW 23 km/h 34 km/h 96% 0 mm 54 W/m2
13:39 7 °C 7 °C 1013.17 hPa NNW 24 km/h 26 km/h 95% 0 mm 49 W/m2
13:44 8 °C 7 °C 1013.14 hPa NNE 20 km/h 32 km/h 95% 0 mm 58 W/m2
13:49 8 °C 7 °C 1013.11 hPa NNE 22 km/h 23 km/h 95% 0 mm 40 W/m2
13:54 8 °C 7 °C 1013.07 hPa NNW 20 km/h 26 km/h 95% 0 mm 47 W/m2
13:59 8 °C 7 °C 1012.97 hPa N 21 km/h 26 km/h 95% 0 mm 54 W/m2
14:04 8 °C 7 °C 1012.94 hPa NNE 24 km/h 29 km/h 95% 0 mm 30 W/m2
14:09 8 °C 7 °C 1012.8 hPa W 25 km/h 27 km/h 94% 0 mm 40 W/m2
14:14 8 °C 7 °C 1012.56 hPa NNE 26 km/h 27 km/h 94% 0 mm 44 W/m2
14:19 7 °C 6 °C 1012.39 hPa NNE 22 km/h 27 km/h 93% 0 mm 40 W/m2
14:24 7 °C 6 °C 1012.39 hPa NW 23 km/h 27 km/h 93% 0 mm 44 W/m2
14:29 7 °C 6 °C 1012.36 hPa NNE 23 km/h 27 km/h 93% 0 mm 53 W/m2
14:34 7 °C 6 °C 1012.26 hPa WNW 23 km/h 27 km/h 93% 0 mm 53 W/m2
14:39 7 °C 6 °C 1012.02 hPa N 26 km/h 26 km/h 93% 0 mm 47 W/m2
14:44 7 °C 6 °C 1012.16 hPa N 25 km/h 29 km/h 93% 0 mm 47 W/m2
14:49 7 °C 7 °C 1012.12 hPa N 20 km/h 29 km/h 94% 0 mm 35 W/m2
14:54 7 °C 7 °C 1011.92 hPa N 22 km/h 27 km/h 94% 0 mm 42 W/m2
14:59 7 °C 6 °C 1011.89 hPa NNE 22 km/h 26 km/h 94% 0 mm 42 W/m2
15:04 7 °C 6 °C 1011.75 hPa NW 23 km/h 27 km/h 94% 0 mm 28 W/m2
15:09 7 °C 6 °C 1011.62 hPa N 23 km/h 29 km/h 94% 0 mm 26 W/m2
15:14 7 °C 6 °C 1011.55 hPa NNE 25 km/h 27 km/h 94% 0 mm 23 W/m2
15:19 7 °C 6 °C 1011.55 hPa NNE 24 km/h 27 km/h 94% 0 mm 18 W/m2
15:24 7 °C 7 °C 1011.51 hPa NNE 25 km/h 26 km/h 94% 0 mm 12 W/m2
15:29 7 °C 7 °C 1011.58 hPa NNE 26 km/h 34 km/h 94% 0 mm 12 W/m2
15:34 7 °C 7 °C 1011.58 hPa NNE 25 km/h 32 km/h 94% 0 mm 9 W/m2
15:39 7 °C 7 °C 1011.55 hPa NNE 29 km/h 34 km/h 94% 0 mm 9 W/m2
15:44 7 °C 6 °C 1011.41 hPa NNE 28 km/h 34 km/h 93% 0 mm 9 W/m2
15:49 7 °C 6 °C 1011.38 hPa N 26 km/h 32 km/h 93% 0 mm 5 W/m2
15:54 7 °C 6 °C 1011.41 hPa N 26 km/h 32 km/h 93% 0 mm 0 W/m2
15:59 7 °C 6 °C 1011.41 hPa NNE 21 km/h 34 km/h 93% 0 mm 0 W/m2
16:04 7 °C 6 °C 1011.24 hPa NNE 24 km/h 24 km/h 93% 0 mm 0 W/m2
16:09 7 °C 6 °C 1011.21 hPa N 25 km/h 26 km/h 93% 0 mm 0 W/m2
16:14 7 °C 6 °C 1011.07 hPa N 22 km/h 32 km/h 93% 0 mm 0 W/m2
16:19 7 °C 6 °C 1011.07 hPa NNE 20 km/h 26 km/h 93% 0 mm 0 W/m2
16:24 7 °C 6 °C 1011.18 hPa NW 25 km/h 23 km/h 92% 0 mm 0 W/m2
16:29 7 °C 6 °C 1011.18 hPa SSW 29 km/h 32 km/h 92% 0 mm 0 W/m2
16:34 8 °C 6 °C 1011.18 hPa NNE 28 km/h 32 km/h 92% 0 mm 0 W/m2
16:39 7 °C 6 °C 1011.14 hPa NNE 25 km/h 34 km/h 92% 0 mm 0 W/m2
16:44 7 °C 6 °C 1010.9 hPa N 22 km/h 27 km/h 92% 0.2 mm 0 W/m2
16:49 7 °C 6 °C 1010.67 hPa NNE 20 km/h 27 km/h 92% 0.2 mm 0 W/m2
16:54 7 °C 6 °C 1010.6 hPa NNE 22 km/h 21 km/h 93% 0.2 mm 0 W/m2
16:59 7 °C 6 °C 1010.67 hPa N 28 km/h 26 km/h 93% 0.2 mm 0 W/m2
17:04 7 °C 6 °C 1010.6 hPa NNE 27 km/h 32 km/h 93% 0.2 mm 0 W/m2
17:09 7 °C 6 °C 1010.57 hPa NNE 26 km/h 29 km/h 92% 0.2 mm 0 W/m2
17:14 7 °C 6 °C 1010.3 hPa NNE 30 km/h 32 km/h 91% 0.2 mm 0 W/m2
17:19 7 °C 6 °C 1010.19 hPa NW 31 km/h 34 km/h 91% 0.2 mm 0 W/m2
17:24 7 °C 6 °C 1010.13 hPa NNE 26 km/h 35 km/h 91% 0.2 mm 0 W/m2
17:29 7 °C 6 °C 1009.92 hPa NNE 28 km/h 26 km/h 91% 0.2 mm 0 W/m2
17:34 7 °C 6 °C 1009.89 hPa NNE 31 km/h 39 km/h 91% 0.2 mm 0 W/m2
17:39 7 °C 6 °C 1009.79 hPa N 33 km/h 39 km/h 91% 0.2 mm 0 W/m2
17:44 7 °C 6 °C 1009.79 hPa NNE 31 km/h 39 km/h 91% 0.2 mm 0 W/m2
17:49 7 °C 6 °C 1009.55 hPa NNE 30 km/h 35 km/h 91% 0 mm 0 W/m2
17:54 7 °C 6 °C 1009.45 hPa NNE 31 km/h 34 km/h 92% 0 mm 0 W/m2
17:59 7 °C 6 °C 1009.41 hPa NNE 30 km/h 35 km/h 92% 0 mm 0 W/m2
18:04 7 °C 6 °C 1009.31 hPa NNW 30 km/h 32 km/h 92% 0 mm 0 W/m2
18:09 7 °C 6 °C 1009.14 hPa NNE 34 km/h 35 km/h 92% 0 mm 0 W/m2
18:14 7 °C 6 °C 1008.84 hPa WNW 38 km/h 35 km/h 92% 0 mm 0 W/m2
18:19 8 °C 6 °C 1008.64 hPa NNE 38 km/h 45 km/h 92% 0 mm 0 W/m2
18:24 8 °C 6 °C 1008.4 hPa NNE 36 km/h 42 km/h 93% 0 mm 0 W/m2
18:29 8 °C 6 °C 1008.16 hPa NNE 41 km/h 47 km/h 93% 0 mm 0 W/m2
18:34 8 °C 6 °C 1008.4 hPa NNE 40 km/h 43 km/h 93% 0 mm 0 W/m2
18:39 8 °C 7 °C 1008.23 hPa NNE 40 km/h 47 km/h 93% 0 mm 0 W/m2
18:44 8 °C 7 °C 1008.03 hPa NNE 34 km/h 47 km/h 94% 0 mm 0 W/m2
18:49 7 °C 7 °C 1007.96 hPa NNE 37 km/h 40 km/h 94% 0.2 mm 0 W/m2
18:54 8 °C 7 °C 1007.82 hPa NNE 38 km/h 43 km/h 94% 0.2 mm 0 W/m2
18:59 8 °C 7 °C 1007.62 hPa WNW 43 km/h 50 km/h 94% 0.41 mm 0 W/m2
Compliments of Weather Underground - 2 mb